TimeEDT,TemperatureF,Dew PointF,Humidity,Sea Level PressureIn,VisibilityMPH,Wind Direction,Wind SpeedMPH,Gust SpeedMPH,PrecipitationIn,Events,Conditions,WindDirDegrees,DateUTC
12:51 AM,77.0,72.0,84,30.14,10.0,Calm,Calm,-,N/A,,Partly Cloudy,0,2013-07-05 04:51:00
1:51 AM,75.0,71.1,87,30.14,10.0,Calm,Calm,-,N/A,,Partly Cloudy,0,2013-07-05 05:51:00
2:51 AM,75.0,71.1,87,30.14,10.0,Calm,Calm,-,N/A,,Partly Cloudy,0,2013-07-05 06:51:00
3:51 AM,73.0,70.0,90,30.14,10.0,Calm,Calm,-,N/A,,Partly Cloudy,0,2013-07-05 07:51:00
4:51 AM,73.0,70.0,90,30.15,10.0,Calm,Calm,-,N/A,,Partly Cloudy,0,2013-07-05 08:51:00
5:51 AM,75.0,71.1,87,30.16,10.0,SE,4.6,-,N/A,,Scattered Clouds,140,2013-07-05 09:51:00
6:51 AM,75.9,71.1,85,30.16,10.0,South,8.1,-,N/A,,Mostly Cloudy,170,2013-07-05 10:51:00
7:51 AM,79.0,72.0,79,30.16,10.0,South,4.6,-,N/A,,Scattered Clouds,170,2013-07-05 11:51:00
8:51 AM,81.0,73.0,77,30.16,10.0,SSE,6.9,-,N/A,,Scattered Clouds,150,2013-07-05 12:51:00
9:51 AM,84.0,73.0,69,30.15,10.0,SSE,6.9,-,N/A,,Scattered Clouds,150,2013-07-05 13:51:00
10:51 AM,86.0,72.0,63,30.14,10.0,SSW,5.8,-,N/A,,Scattered Clouds,200,2013-07-05 14:51:00
11:51 AM,87.1,72.0,61,30.13,10.0,Variable,5.8,-,N/A,,Mostly Cloudy,0,2013-07-05 15:51:00
12:51 PM,88.0,72.0,59,30.12,10.0,South,8.1,-,N/A,,Mostly Cloudy,180,2013-07-05 16:51:00
1:51 PM,87.1,72.0,61,30.10,10.0,SE,10.4,-,N/A,,Scattered Clouds,140,2013-07-05 17:51:00
2:51 PM,89.1,71.1,55,30.08,10.0,South,6.9,-,0.00,,Mostly Cloudy,180,2013-07-05 18:51:00
3:51 PM,84.9,75.0,72,30.07,10.0,Variable,4.6,-,0.13,,Mostly Cloudy,0,2013-07-05 19:51:00
4:51 PM,90.0,73.9,59,30.04,10.0,South,11.5,-,N/A,,Scattered Clouds,190,2013-07-05 20:51:00
5:51 PM,90.0,73.0,57,30.02,10.0,South,10.4,18.4,N/A,,Mostly Cloudy,180,2013-07-05 21:51:00
6:51 PM,89.1,72.0,57,30.02,10.0,South,8.1,-,N/A,,Mostly Cloudy,180,2013-07-05 22:51:00
7:51 PM,86.0,73.0,65,30.04,10.0,SSW,4.6,-,N/A,,Mostly Cloudy,210,2013-07-05 23:51:00
8:51 PM,80.1,70.0,71,30.06,10.0,NW,5.8,-,N/A,,Scattered Clouds,320,2013-07-06 00:51:00
9:51 PM,79.0,70.0,74,30.08,10.0,Calm,Calm,-,N/A,,Scattered Clouds,0,2013-07-06 01:51:00
10:51 PM,77.0,70.0,79,30.08,10.0,Calm,Calm,-,N/A,,Scattered Clouds,0,2013-07-06 02:51:00
11:51 PM,77.0,70.0,79,30.09,10.0,Calm,Calm,-,N/A,,Mostly Cloudy,0,2013-07-06 03:51:00